RYR0599 LEMH-EGCC

Flight info

Callsign RYR0599
Flight time N/A
Altitude 38000
Route OLUTO N733 AKAMU DCT ADX N863 GIROM DCT GONUP DCT TUPAR UN861 ANG DCT AKIKI UN867 AVANT UM184 HEMEL T420 TNT
Aircraft B38M/M-SDE1FGHILORVWXY/HB1

Departure

Time 2026-05-07 10:51
Airport Menorca Airport (LEMH)

Arrival

Time N/A
Airport Manchester Airport (EGCC)
Time Latitude Longitude Altitude Speed Heading
2026-05-07 10:40 39.86469 4.22398 289 ft 0 kts 99°
2026-05-07 10:41 39.86473 4.22365 292 ft 4 kts 101°
2026-05-07 10:42 39.86478 4.22334 291 ft 2 kts 112°
2026-05-07 10:42 39.86486 4.22323 296 ft 2 kts 171°
2026-05-07 10:42 39.86496 4.22324 296 ft 2 kts 184°
2026-05-07 10:42 39.86499 4.22324 293 ft 0 kts 187°
2026-05-07 10:46 39.86490 4.22322 296 ft 8 kts 187°
2026-05-07 10:46 39.86418 4.22310 291 ft 12 kts 187°
2026-05-07 10:46 39.86350 4.22298 291 ft 10 kts 188°
2026-05-07 10:46 39.86276 4.22283 292 ft 12 kts 189°
2026-05-07 10:47 39.86219 4.22211 293 ft 12 kts 245°
2026-05-07 10:47 39.86189 4.22117 298 ft 10 kts 236°
2026-05-07 10:47 39.86131 4.22074 297 ft 10 kts 189°
2026-05-07 10:47 39.86056 4.22061 298 ft 11 kts 188°
2026-05-07 10:48 39.85973 4.22046 299 ft 13 kts 188°
2026-05-07 10:48 39.85880 4.22029 302 ft 15 kts 188°
2026-05-07 10:48 39.85773 4.22006 295 ft 13 kts 191°
2026-05-07 10:48 39.85670 4.21981 294 ft 15 kts 191°
2026-05-07 10:49 39.85559 4.21956 290 ft 17 kts 189°
2026-05-07 10:49 39.85456 4.21935 286 ft 16 kts 188°
2026-05-07 10:49 39.85348 4.21914 284 ft 16 kts 188°
2026-05-07 10:49 39.85228 4.21892 283 ft 19 kts 188°
2026-05-07 10:50 39.85130 4.21837 285 ft 15 kts 249°
2026-05-07 10:50 39.85141 4.21709 287 ft 11 kts 281°
2026-05-07 10:50 39.85185 4.21645 288 ft 9 kts
2026-05-07 10:50 39.85196 4.21647 288 ft 0 kts
2026-05-07 10:51 39.85215 4.21651 288 ft 16 kts
2026-05-07 10:51 39.85587 4.21726 296 ft 94 kts
2026-05-07 10:51 39.86478 4.21903 407 ft 147 kts
2026-05-07 10:51 39.87511 4.22067 1122 ft 159 kts 14°
2026-05-07 10:52 39.88643 4.22325 1837 ft 172 kts 11°
2026-05-07 10:52 39.89845 4.22584 2691 ft 177 kts 11°
2026-05-07 10:52 39.91112 4.22854 3372 ft 192 kts
2026-05-07 10:52 39.92505 4.23148 4000 ft 213 kts
2026-05-07 10:53 39.94037 4.23467 4675 ft 233 kts
2026-05-07 10:53 39.95699 4.23675 5288 ft 254 kts 353°
2026-05-07 10:53 39.97420 4.22886 5967 ft 270 kts 324°
2026-05-07 10:53 39.98893 4.21341 6855 ft 276 kts 322°
2026-05-07 10:54 40.00610 4.20248 8038 ft 275 kts 334°
2026-05-07 10:54 40.02161 4.18805 8880 ft 279 kts 304°
2026-05-07 10:54 40.02856 4.16483 9926 ft 272 kts 270°
2026-05-07 10:54 40.02480 4.14117 10698 ft 277 kts 241°
2026-05-07 10:55 40.01114 4.12245 11258 ft 295 kts 212°
2026-05-07 10:55 39.99222 4.11035 11834 ft 309 kts 211°
2026-05-07 10:55 39.97605 4.09230 12600 ft 311 kts 233°
2026-05-07 10:55 39.96272 4.07018 13569 ft 312 kts 227°
2026-05-07 10:56 39.94861 4.04859 14282 ft 315 kts 242°
2026-05-07 10:56 39.94257 4.02128 15107 ft 317 kts 261°
2026-05-07 10:56 39.93870 3.99271 15704 ft 324 kts 256°
2026-05-07 10:56 39.93376 3.96399 16496 ft 325 kts 256°
2026-05-07 10:57 39.92853 3.93515 17181 ft 330 kts 255°
2026-05-07 10:57 39.92309 3.90605 17862 ft 333 kts 255°
2026-05-07 10:57 39.91747 3.87660 18499 ft 336 kts 254°
2026-05-07 10:57 39.91176 3.84700 19096 ft 339 kts 254°
2026-05-07 10:58 39.90595 3.81706 19727 ft 340 kts 254°
2026-05-07 10:58 39.90011 3.78710 20316 ft 343 kts 254°
2026-05-07 10:58 39.89422 3.75695 20903 ft 345 kts 254°
2026-05-07 10:58 39.88830 3.72668 21489 ft 347 kts 253°
2026-05-07 10:59 39.88237 3.69642 22057 ft 349 kts 253°
2026-05-07 10:59 39.87625 3.66524 22633 ft 352 kts 253°
2026-05-07 10:59 39.87017 3.63430 23198 ft 354 kts 253°
2026-05-07 10:59 39.86414 3.60368 23703 ft 356 kts 253°
2026-05-07 11:00 39.85797 3.57235 24154 ft 358 kts 253°
2026-05-07 11:00 39.85176 3.54087 24616 ft 360 kts 253°
2026-05-07 11:00 39.84543 3.50887 25051 ft 362 kts 253°
2026-05-07 11:00 39.83920 3.47740 25474 ft 364 kts 253°
2026-05-07 11:01 39.83284 3.44535 25924 ft 366 kts 253°
2026-05-07 11:01 39.82639 3.41288 26343 ft 368 kts 253°
2026-05-07 11:01 39.82003 3.38094 26751 ft 370 kts 253°
2026-05-07 11:01 39.81355 3.34840 27170 ft 372 kts 253°
2026-05-07 11:02 39.80704 3.31579 27571 ft 374 kts 253°
2026-05-07 11:02 39.80049 3.28299 27969 ft 376 kts 253°
2026-05-07 11:02 39.79388 3.24998 28368 ft 378 kts 253°
2026-05-07 11:02 39.78722 3.21680 28761 ft 380 kts 253°
2026-05-07 11:03 39.78056 3.18361 29132 ft 382 kts 253°
2026-05-07 11:03 39.77382 3.15015 29514 ft 383 kts 253°
2026-05-07 11:03 39.76704 3.11649 29873 ft 385 kts 253°
2026-05-07 11:03 39.76023 3.08276 30196 ft 387 kts 253°
2026-05-07 11:04 39.75337 3.04882 30503 ft 389 kts 253°
2026-05-07 11:04 39.74649 3.01482 30805 ft 390 kts 253°
2026-05-07 11:04 39.73954 2.98056 31094 ft 392 kts 253°
2026-05-07 11:04 39.73259 2.94634 31398 ft 393 kts 253°
2026-05-07 11:05 39.72557 2.91187 31696 ft 395 kts 253°
2026-05-07 11:05 39.71855 2.87743 31969 ft 396 kts 253°
2026-05-07 11:05 39.71146 2.84269 32270 ft 398 kts 253°
2026-05-07 11:05 39.70436 2.80798 32566 ft 399 kts 253°
2026-05-07 11:06 39.69963 2.78486 32828 ft 398 kts 253°
2026-05-07 11:06 39.69255 2.75030 33247 ft 396 kts 253°
2026-05-07 11:06 39.68544 2.71574 33673 ft 394 kts 253°
2026-05-07 11:06 39.67841 2.68154 34060 ft 393 kts 253°
2026-05-07 11:07 39.67133 2.64719 34383 ft 392 kts 253°
2026-05-07 11:07 39.66484 2.61289 34661 ft 393 kts 260°
2026-05-07 11:07 39.66295 2.57747 34959 ft 393 kts 263°
2026-05-07 11:07 39.66109 2.54211 35177 ft 393 kts 261°
2026-05-07 11:08 39.65471 2.50786 35443 ft 388 kts 245°
2026-05-07 11:08 39.64082 2.47806 35717 ft 388 kts 231°
2026-05-07 11:08 39.62189 2.45272 35837 ft 392 kts 229°
2026-05-07 11:08 39.60622 2.42416 36041 ft 389 kts 244°
2026-05-07 11:09 39.59748 2.39100 36325 ft 390 kts 257°
2026-05-07 11:09 39.59539 2.35573 36459 ft 397 kts 270°
2026-05-07 11:09 39.60017 2.32038 36673 ft 404 kts 283°
2026-05-07 11:09 39.61154 2.28668 36872 ft 414 kts 295°
2026-05-07 11:10 39.62905 2.25652 37045 ft 425 kts 308°
2026-05-07 11:10 39.65192 2.23149 37248 ft 435 kts 318°
2026-05-07 11:10 39.67701 2.20942 37418 ft 434 kts 315°
2026-05-07 11:10 39.69959 2.18449 37591 ft 430 kts 310°
2026-05-07 11:11 39.72161 2.15765 37768 ft 428 kts 309°
2026-05-07 11:11 39.74250 2.13065 37940 ft 428 kts 308°
2026-05-07 11:11 39.78373 2.07525 37971 ft 426 kts 307°
2026-05-07 11:12 39.82460 2.01919 37980 ft 426 kts 307°
2026-05-07 11:12 39.86528 1.96310 37982 ft 427 kts 307°
2026-05-07 11:13 39.90603 1.90678 37985 ft 427 kts 307°
2026-05-07 11:13 39.94673 1.85042 37986 ft 427 kts 307°
2026-05-07 11:14 39.98750 1.79401 37987 ft 429 kts 308°
2026-05-07 11:14 40.01122 1.76984 37970 ft 440 kts 324°
2026-05-07 11:14 40.03914 1.75255 37985 ft 448 kts 329°
2026-05-07 11:15 40.09651 1.72087 37998 ft 451 kts 331°
2026-05-07 11:15 40.15480 1.69042 37999 ft 452 kts 332°
2026-05-07 11:16 40.21330 1.66028 38001 ft 452 kts 332°
2026-05-07 11:16 40.27199 1.63005 37996 ft 453 kts 332°
2026-05-07 11:17 40.33054 1.59984 37997 ft 453 kts 332°
2026-05-07 11:17 40.38921 1.56950 38001 ft 453 kts 332°
2026-05-07 11:18 40.44797 1.53907 37999 ft 453 kts 332°
2026-05-07 11:18 40.50655 1.50867 38001 ft 454 kts 332°
2026-05-07 11:19 40.56537 1.47809 38003 ft 454 kts 332°
2026-05-07 11:19 40.62415 1.44747 38012 ft 454 kts 332°
2026-05-07 11:20 40.68286 1.41684 38008 ft 454 kts 332°
2026-05-07 11:20 40.74126 1.38630 38012 ft 455 kts 332°
2026-05-07 11:21 40.80006 1.35550 38008 ft 455 kts 332°
2026-05-07 11:21 40.85887 1.32464 38014 ft 455 kts 332°
2026-05-07 11:22 40.91773 1.29369 38019 ft 455 kts 332°
2026-05-07 11:22 40.97653 1.26271 38021 ft 455 kts 332°
2026-05-07 11:23 41.03542 1.23162 38022 ft 455 kts 332°
2026-05-07 11:23 41.09414 1.20057 38022 ft 455 kts 332°
2026-05-07 11:24 41.15370 1.17308 37992 ft 463 kts 347°
2026-05-07 11:24 41.21772 1.16475 38005 ft 468 kts 349°
2026-05-07 11:25 41.28279 1.15731 38016 ft 469 kts 350°
2026-05-07 11:25 41.34798 1.15041 38011 ft 470 kts 350°
2026-05-07 11:26 41.41308 1.14356 38012 ft 470 kts 350°
2026-05-07 11:26 41.47820 1.13671 37992 ft 470 kts 350°
2026-05-07 11:27 41.54338 1.12983 37975 ft 469 kts 350°
2026-05-07 11:27 41.60850 1.12295 37975 ft 470 kts 350°
2026-05-07 11:28 41.67375 1.11604 37978 ft 470 kts 350°
2026-05-07 11:28 41.73885 1.10913 37976 ft 470 kts 351°
2026-05-07 11:29 41.80394 1.10220 37966 ft 469 kts 351°
2026-05-07 11:29 41.86913 1.09525 37971 ft 470 kts 351°
2026-05-07 11:30 41.93419 1.08830 37967 ft 469 kts 351°
2026-05-07 11:30 41.99928 1.08134 37967 ft 469 kts 351°
2026-05-07 11:31 42.06398 1.07440 37964 ft 469 kts 351°
2026-05-07 11:31 42.12910 1.06740 37969 ft 469 kts 351°
2026-05-07 11:32 42.22667 1.05691 37973 ft 468 kts 351°
2026-05-07 11:33 42.29150 1.04992 37982 ft 468 kts 351°
2026-05-07 11:33 42.35647 1.04291 37988 ft 468 kts 351°
2026-05-07 11:34 42.42136 1.03588 37982 ft 467 kts 351°
2026-05-07 11:34 42.48608 1.02884 37992 ft 467 kts 351°
2026-05-07 11:35 42.55047 1.02181 37973 ft 466 kts 351°
2026-05-07 11:35 42.61562 1.01470 37960 ft 467 kts 351°
2026-05-07 11:36 42.67994 1.00766 37979 ft 466 kts 352°
2026-05-07 11:36 42.74457 1.00057 37979 ft 466 kts 352°
2026-05-07 11:37 42.80784 0.98566 37970 ft 460 kts 342°
2026-05-07 11:37 42.86989 0.96455 38022 ft 461 kts 342°
2026-05-07 11:38 42.93198 0.94317 37976 ft 460 kts 342°
2026-05-07 11:38 42.99414 0.92168 37976 ft 459 kts 342°
2026-05-07 11:39 43.05604 0.90025 37965 ft 460 kts 342°
2026-05-07 11:39 43.11828 0.87863 37989 ft 461 kts 342°
2026-05-07 11:40 43.18048 0.85700 37993 ft 461 kts 342°
2026-05-07 11:40 43.24222 0.83548 37991 ft 461 kts 342°
2026-05-07 11:41 43.30441 0.81376 38000 ft 461 kts 342°
2026-05-07 11:41 43.36653 0.79201 37997 ft 461 kts 342°
2026-05-07 11:42 43.42863 0.77023 38000 ft 461 kts 342°
2026-05-07 11:42 43.48961 0.74441 38005 ft 458 kts 338°
2026-05-07 11:43 43.55014 0.71642 38000 ft 459 kts 339°
2026-05-07 11:43 43.61080 0.68877 38000 ft 458 kts 339°
2026-05-07 11:44 43.67137 0.66115 37987 ft 458 kts 339°
2026-05-07 11:44 43.73191 0.63349 37996 ft 458 kts 339°
2026-05-07 11:45 43.79208 0.60594 37990 ft 458 kts 339°
2026-05-07 11:45 43.85252 0.57821 37997 ft 458 kts 339°
2026-05-07 11:46 43.91309 0.55036 38004 ft 458 kts 339°
2026-05-07 11:46 43.97358 0.52249 38013 ft 458 kts 339°
2026-05-07 11:47 44.03403 0.49457 38015 ft 458 kts 339°
2026-05-07 11:47 44.09449 0.46660 38017 ft 458 kts 338°
2026-05-07 11:48 44.15453 0.43875 38023 ft 458 kts 338°
2026-05-07 11:48 44.21496 0.41067 38017 ft 458 kts 338°
2026-05-07 11:49 44.27547 0.38248 38020 ft 458 kts 338°
2026-05-07 11:49 44.33574 0.35434 38015 ft 458 kts 338°
2026-05-07 11:50 44.39625 0.32604 38020 ft 458 kts 338°
2026-05-07 11:50 44.45655 0.29776 38016 ft 458 kts 338°
2026-05-07 11:51 44.51687 0.26942 38017 ft 457 kts 338°
2026-05-07 11:51 44.57725 0.24099 38022 ft 457 kts 338°
2026-05-07 11:52 44.63761 0.21251 38022 ft 457 kts 338°
2026-05-07 11:52 44.69757 0.18415 38023 ft 457 kts 338°
2026-05-07 11:53 44.75825 0.15539 38017 ft 457 kts 338°
2026-05-07 11:53 44.81853 0.12675 38020 ft 457 kts 338°
2026-05-07 11:54 44.87842 0.09824 38022 ft 457 kts 338°
2026-05-07 11:54 44.93901 0.06933 38023 ft 457 kts 338°
2026-05-07 11:55 44.99882 0.04072 38016 ft 457 kts 338°
2026-05-07 11:55 45.05914 0.01182 38022 ft 457 kts 338°
2026-05-07 11:56 45.11924 -0.01705 38019 ft 457 kts 338°
2026-05-07 11:56 45.17942 -0.04602 38014 ft 457 kts 338°
2026-05-07 11:57 45.23954 -0.07503 38022 ft 456 kts 338°
2026-05-07 11:57 45.29969 -0.10412 38010 ft 456 kts 338°
2026-05-07 11:58 45.35967 -0.13318 38023 ft 456 kts 338°
2026-05-07 11:58 45.41980 -0.16239 38027 ft 456 kts 338°
2026-05-07 11:59 45.46971 -0.18668 38013 ft 456 kts 338°
2026-05-07 11:59 45.52972 -0.21596 38015 ft 456 kts 338°
2026-05-07 12:00 45.58961 -0.24523 38020 ft 455 kts 338°
2026-05-07 12:00 45.64960 -0.27463 38022 ft 455 kts 338°
2026-05-07 12:01 45.70952 -0.30405 38022 ft 455 kts 338°
2026-05-07 12:01 45.76937 -0.33351 38022 ft 455 kts 338°
2026-05-07 12:02 45.82922 -0.36303 38016 ft 455 kts 338°
2026-05-07 12:02 45.88910 -0.39263 38010 ft 455 kts 338°
2026-05-07 12:03 45.94891 -0.42227 38008 ft 455 kts 338°
2026-05-07 12:03 46.00832 -0.45179 38010 ft 455 kts 338°
2026-05-07 12:04 46.06808 -0.48154 38009 ft 454 kts 338°
2026-05-07 12:04 46.12781 -0.51134 38009 ft 454 kts 338°
2026-05-07 12:05 46.18754 -0.54120 38008 ft 454 kts 338°
2026-05-07 12:05 46.24724 -0.57111 38010 ft 454 kts 338°
2026-05-07 12:06 46.30697 -0.60111 38010 ft 454 kts 338°
2026-05-07 12:06 46.36658 -0.63111 38005 ft 454 kts 338°
2026-05-07 12:07 46.42649 -0.66055 37999 ft 456 kts 345°
2026-05-07 12:07 46.48944 -0.67251 37981 ft 458 kts 350°
2026-05-07 12:08 46.55293 -0.68348 38007 ft 459 kts 351°
2026-05-07 12:08 46.61634 -0.69417 38015 ft 459 kts 351°
2026-05-07 12:09 46.67966 -0.70484 38012 ft 459 kts 351°
2026-05-07 12:09 46.74317 -0.71557 38012 ft 459 kts 351°
2026-05-07 12:10 46.80646 -0.72629 38014 ft 459 kts 351°
2026-05-07 12:10 46.86989 -0.73705 38020 ft 459 kts 351°
2026-05-07 12:11 46.93323 -0.74783 38019 ft 458 kts 351°
2026-05-07 12:11 46.99625 -0.75858 38020 ft 458 kts 351°
2026-05-07 12:12 47.05963 -0.76941 38018 ft 458 kts 351°
2026-05-07 12:12 47.12293 -0.78026 38019 ft 458 kts 351°
2026-05-07 12:13 47.18629 -0.79114 38017 ft 458 kts 351°
2026-05-07 12:13 47.24943 -0.80201 38025 ft 458 kts 351°
2026-05-07 12:14 47.31281 -0.81295 38023 ft 458 kts 351°
2026-05-07 12:14 47.37598 -0.82388 38025 ft 458 kts 351°
2026-05-07 12:15 47.43923 -0.83485 38028 ft 457 kts 351°
2026-05-07 12:15 47.50248 -0.84583 38026 ft 457 kts 351°
2026-05-07 12:16 47.56513 -0.86058 38035 ft 456 kts 347°
2026-05-07 12:16 47.62755 -0.87746 38031 ft 456 kts 347°
2026-05-07 12:17 47.69000 -0.89400 38033 ft 456 kts 347°
2026-05-07 12:17 47.75245 -0.91055 38040 ft 456 kts 347°
2026-05-07 12:18 47.81485 -0.92712 38046 ft 455 kts 347°
2026-05-07 12:18 47.87726 -0.94374 38043 ft 456 kts 347°
2026-05-07 12:19 47.93925 -0.96028 38049 ft 455 kts 347°
2026-05-07 12:19 48.00163 -0.97696 38044 ft 455 kts 347°
2026-05-07 12:20 48.06396 -0.99368 38047 ft 455 kts 347°
2026-05-07 12:20 48.12629 -1.01044 38044 ft 455 kts 347°
2026-05-07 12:21 48.18849 -1.02720 38043 ft 455 kts 347°
2026-05-07 12:21 48.25082 -1.04404 38040 ft 455 kts 347°
2026-05-07 12:22 48.31312 -1.06091 38034 ft 455 kts 347°
2026-05-07 12:22 48.37543 -1.07783 38035 ft 455 kts 347°
2026-05-07 12:23 48.43769 -1.09477 38034 ft 455 kts 347°
2026-05-07 12:23 48.49951 -1.11164 38033 ft 455 kts 347°
2026-05-07 12:24 48.56176 -1.12867 38033 ft 454 kts 347°
2026-05-07 12:24 48.62399 -1.14573 38036 ft 454 kts 348°
2026-05-07 12:25 48.68655 -1.16292 38036 ft 454 kts 348°
2026-05-07 12:25 48.74838 -1.17997 38037 ft 454 kts 348°
2026-05-07 12:26 48.81057 -1.19715 38038 ft 454 kts 348°
2026-05-07 12:26 48.87271 -1.21436 38042 ft 454 kts 348°
2026-05-07 12:27 48.93485 -1.23162 38041 ft 454 kts 348°
2026-05-07 12:27 48.99713 -1.24896 38038 ft 454 kts 348°
2026-05-07 12:28 49.05923 -1.26629 38042 ft 454 kts 348°
2026-05-07 12:28 49.12144 -1.28370 38044 ft 454 kts 348°
2026-05-07 12:29 49.18361 -1.30114 38044 ft 454 kts 348°
2026-05-07 12:29 49.24570 -1.31860 38046 ft 454 kts 348°
2026-05-07 12:30 49.30784 -1.33612 38029 ft 454 kts 348°
2026-05-07 12:30 49.37010 -1.35372 38044 ft 454 kts 348°
2026-05-07 12:31 49.43222 -1.37132 38053 ft 454 kts 348°
2026-05-07 12:31 49.49444 -1.38899 38040 ft 454 kts 348°
2026-05-07 12:32 49.55668 -1.40671 38051 ft 454 kts 348°
2026-05-07 12:32 49.61943 -1.41321 38070 ft 456 kts
2026-05-07 12:33 49.71476 -1.40575 38049 ft 457 kts
2026-05-07 12:33 49.77835 -1.40016 38045 ft 457 kts
2026-05-07 12:34 49.84192 -1.39453 38054 ft 457 kts
2026-05-07 12:34 49.90506 -1.38891 38062 ft 457 kts
2026-05-07 12:35 49.96898 -1.38321 38066 ft 457 kts
2026-05-07 12:35 50.03226 -1.37212 38068 ft 458 kts
2026-05-07 12:36 50.09525 -1.35679 38075 ft 459 kts
2026-05-07 12:36 50.15831 -1.34113 38073 ft 458 kts
2026-05-07 12:37 50.22119 -1.32544 38070 ft 458 kts
2026-05-07 12:37 50.28414 -1.30969 38073 ft 458 kts
2026-05-07 12:38 50.34717 -1.29388 38072 ft 458 kts
2026-05-07 12:38 50.41008 -1.27806 38068 ft 458 kts
2026-05-07 12:39 50.47267 -1.26222 38067 ft 458 kts
2026-05-07 12:39 50.50300 -1.24770 38048 ft 457 kts 26°
2026-05-07 12:39 50.53081 -1.22330 38074 ft 459 kts 29°
2026-05-07 12:40 50.58570 -1.17165 38069 ft 460 kts 31°
2026-05-07 12:40 50.63998 -1.11832 38068 ft 460 kts 32°
2026-05-07 12:41 50.69411 -1.06442 38068 ft 460 kts 32°
2026-05-07 12:41 50.74810 -1.01045 38065 ft 460 kts 32°
2026-05-07 12:42 50.80206 -0.95638 38063 ft 459 kts 31°
2026-05-07 12:42 50.83060 -0.93399 38055 ft 456 kts 17°
2026-05-07 12:42 50.86077 -0.91832 38057 ft 458 kts 18°
2026-05-07 12:43 50.92110 -0.88630 38064 ft 458 kts 18°
2026-05-07 12:43 50.98174 -0.85478 38052 ft 458 kts 17°
2026-05-07 12:44 51.04220 -0.82338 38047 ft 458 kts 18°
2026-05-07 12:44 51.10282 -0.79181 38049 ft 458 kts 18°
2026-05-07 12:45 51.16329 -0.76023 38048 ft 458 kts 18°
2026-05-07 12:45 51.22383 -0.72853 38048 ft 457 kts 18°
2026-05-07 12:46 51.28426 -0.69681 38046 ft 457 kts 18°
2026-05-07 12:46 51.34475 -0.66496 38048 ft 457 kts 18°
2026-05-07 12:47 51.40512 -0.63309 38070 ft 457 kts 18°
2026-05-07 12:47 51.45537 -0.60648 38076 ft 457 kts 18°
2026-05-07 12:48 51.52551 -0.56925 38075 ft 457 kts 18°
2026-05-07 12:48 51.57601 -0.54237 38073 ft 457 kts 18°
2026-05-07 12:49 51.63639 -0.51015 38075 ft 457 kts 18°
2026-05-07 12:49 51.69680 -0.47782 38077 ft 457 kts 18°
2026-05-07 12:50 51.75672 -0.44606 38007 ft 454 kts 14°
2026-05-07 12:50 51.78751 -0.43897 37799 ft 444 kts 358°
2026-05-07 12:50 51.81779 -0.44489 37454 ft 438 kts 343°
2026-05-07 12:51 51.84583 -0.46297 36957 ft 432 kts 330°
2026-05-07 12:51 51.87205 -0.48635 36444 ft 429 kts 330°
2026-05-07 12:51 51.89798 -0.51030 35902 ft 427 kts 329°
2026-05-07 12:51 51.92352 -0.53452 35431 ft 424 kts 329°
2026-05-07 12:52 51.94884 -0.55890 34933 ft 422 kts 329°
2026-05-07 12:52 51.97403 -0.58337 34410 ft 421 kts 329°
2026-05-07 12:52 51.99910 -0.60784 33929 ft 419 kts 329°
2026-05-07 12:52 52.02393 -0.63215 33398 ft 416 kts 329°
2026-05-07 12:53 52.04852 -0.65626 32916 ft 412 kts 329°
2026-05-07 12:53 52.07301 -0.68030 32460 ft 408 kts 329°
2026-05-07 12:53 52.09714 -0.70403 32006 ft 404 kts 329°
2026-05-07 12:53 52.12117 -0.72767 31544 ft 401 kts 329°
2026-05-07 12:54 52.14495 -0.75112 31037 ft 400 kts 329°
2026-05-07 12:54 52.16870 -0.77456 30574 ft 397 kts 329°
2026-05-07 12:54 52.19226 -0.79784 30133 ft 394 kts 329°
2026-05-07 12:54 52.21560 -0.82094 29621 ft 392 kts 329°
2026-05-07 12:55 52.23880 -0.84392 29146 ft 388 kts 329°
2026-05-07 12:55 52.26187 -0.86680 28620 ft 386 kts 329°
2026-05-07 12:55 52.28473 -0.88951 28175 ft 382 kts 329°
2026-05-07 12:55 52.30700 -0.91165 27776 ft 378 kts 329°
2026-05-07 12:56 52.32967 -0.93422 27335 ft 375 kts 328°
2026-05-07 12:56 52.35178 -0.95625 26924 ft 372 kts 328°
2026-05-07 12:56 52.37379 -0.97822 26499 ft 369 kts 328°
2026-05-07 12:56 52.39540 -0.99980 26082 ft 367 kts 328°
2026-05-07 12:57 52.41737 -1.02178 25659 ft 364 kts 328°
2026-05-07 12:57 52.43870 -1.04314 25232 ft 362 kts 328°
2026-05-07 12:57 52.46010 -1.06459 24818 ft 360 kts 328°
2026-05-07 12:57 52.48142 -1.08598 24402 ft 359 kts 327°
2026-05-07 12:58 52.50295 -1.10762 23914 ft 359 kts 327°
2026-05-07 12:58 52.52399 -1.12879 23502 ft 357 kts 327°
2026-05-07 12:58 52.54512 -1.15005 23027 ft 355 kts 327°
2026-05-07 12:58 52.56612 -1.17121 22560 ft 353 kts 327°
2026-05-07 12:59 52.58698 -1.19225 22126 ft 351 kts 327°
2026-05-07 12:59 52.60771 -1.21318 21742 ft 347 kts 327°
2026-05-07 12:59 52.62817 -1.23386 21344 ft 344 kts 327°
2026-05-07 12:59 52.64849 -1.25443 20878 ft 343 kts 327°
2026-05-07 13:00 52.66875 -1.27496 20415 ft 342 kts 327°
2026-05-07 13:00 52.68905 -1.29554 19954 ft 342 kts 327°
2026-05-07 13:00 52.70926 -1.31609 19502 ft 342 kts 327°
2026-05-07 13:00 52.72952 -1.33670 19058 ft 341 kts 326°
2026-05-07 13:01 52.74969 -1.35725 18641 ft 341 kts 326°
2026-05-07 13:01 52.76985 -1.37780 18194 ft 340 kts 326°
2026-05-07 13:01 52.78999 -1.39837 17696 ft 339 kts 326°
2026-05-07 13:01 52.81009 -1.41890 17203 ft 339 kts 326°
2026-05-07 13:02 52.83010 -1.43938 16730 ft 338 kts 326°
2026-05-07 13:02 52.84998 -1.45974 16246 ft 337 kts 327°
2026-05-07 13:02 52.86982 -1.48009 15770 ft 336 kts 327°
2026-05-07 13:02 52.88962 -1.50041 15324 ft 329 kts 326°
2026-05-07 13:03 52.90872 -1.52004 14885 ft 318 kts 326°
2026-05-07 13:03 52.92722 -1.53908 14523 ft 307 kts 326°
2026-05-07 13:03 52.94522 -1.55761 14133 ft 301 kts 326°
2026-05-07 13:03 52.96291 -1.57584 13726 ft 299 kts 326°
2026-05-07 13:04 52.98051 -1.59400 13294 ft 298 kts 326°
2026-05-07 13:04 52.99809 -1.61216 12853 ft 296 kts 326°
2026-05-07 13:04 53.01548 -1.63014 12425 ft 294 kts 326°
2026-05-07 13:04 53.03287 -1.64812 11994 ft 293 kts 326°
2026-05-07 13:05 53.05005 -1.66618 11567 ft 291 kts 322°
2026-05-07 13:05 53.06422 -1.68939 11170 ft 287 kts 307°
2026-05-07 13:05 53.07726 -1.71490 10751 ft 290 kts 308°
2026-05-07 13:05 53.09043 -1.74047 10353 ft 290 kts 308°
2026-05-07 13:06 53.10341 -1.76565 9965 ft 290 kts 308°
2026-05-07 13:06 53.11658 -1.79121 9526 ft 290 kts 308°
2026-05-07 13:06 53.12988 -1.81702 9089 ft 291 kts 308°
2026-05-07 13:06 53.14287 -1.84228 8663 ft 290 kts 308°
2026-05-07 13:07 53.15597 -1.86777 8238 ft 290 kts 308°
2026-05-07 13:07 53.16911 -1.89335 7986 ft 283 kts 308°
2026-05-07 13:07 53.18137 -1.91726 7995 ft 267 kts 307°
2026-05-07 13:07 53.19319 -1.94032 7997 ft 251 kts 307°
2026-05-07 13:08 53.20403 -1.96150 8004 ft 236 kts 307°
2026-05-07 13:08 53.21451 -1.98199 7994 ft 232 kts 307°
2026-05-07 13:08 53.22501 -2.00254 8004 ft 233 kts 307°
2026-05-07 13:08 53.23744 -2.01964 7962 ft 236 kts 337°
2026-05-07 13:09 53.25379 -2.02170 7958 ft 237 kts
2026-05-07 13:09 53.26999 -2.01593 7902 ft 244 kts 12°
2026-05-07 13:09 53.28661 -2.00964 7617 ft 245 kts 12°
2026-05-07 13:09 53.30310 -2.00175 7183 ft 250 kts 19°
2026-05-07 13:10 53.31958 -1.99166 6766 ft 254 kts 20°
2026-05-07 13:10 53.33590 -1.97995 6354 ft 257 kts 25°
2026-05-07 13:10 53.35221 -1.96698 5905 ft 261 kts 25°
2026-05-07 13:10 53.36874 -1.95386 5459 ft 265 kts 25°
2026-05-07 13:11 53.38551 -1.94050 5021 ft 268 kts 25°
2026-05-07 13:11 53.40249 -1.92706 4582 ft 272 kts 25°
2026-05-07 13:11 53.41967 -1.91358 4124 ft 270 kts 25°
2026-05-07 13:11 53.43655 -1.90053 3689 ft 264 kts 25°
2026-05-07 13:12 53.45295 -1.88810 3521 ft 251 kts 25°
2026-05-07 13:12 53.46888 -1.88039 3517 ft 228 kts
2026-05-07 13:12 53.48422 -1.88345 3474 ft 224 kts 333°
2026-05-07 13:12 53.49563 -1.90002 3526 ft 216 kts 303°
2026-05-07 13:13 53.50419 -1.92033 3511 ft 209 kts 293°
2026-05-07 13:13 53.50720 -1.94297 3494 ft 192 kts 261°
2026-05-07 13:13 53.50473 -1.96480 3540 ft 191 kts 250°
2026-05-07 13:13 53.49904 -1.98463 3501 ft 187 kts 233°
2026-05-07 13:14 53.49112 -2.00186 3506 ft 186 kts 224°
2026-05-07 13:14 53.48145 -2.01608 3485 ft 184 kts 219°
2026-05-07 13:14 53.47244 -2.03071 3541 ft 176 kts 224°
2026-05-07 13:14 53.46444 -2.04587 3454 ft 173 kts 227°
2026-05-07 13:15 53.45685 -2.06131 3270 ft 167 kts 227°
2026-05-07 13:15 53.44979 -2.07596 3070 ft 155 kts 227°
2026-05-07 13:15 53.44313 -2.08975 2865 ft 151 kts 226°
2026-05-07 13:15 53.43656 -2.10339 2665 ft 149 kts 227°
2026-05-07 13:16 53.43018 -2.11667 2480 ft 145 kts 227°
2026-05-07 13:16 53.42389 -2.12975 2283 ft 142 kts 227°
2026-05-07 13:16 53.41785 -2.14227 2104 ft 135 kts 227°
2026-05-07 13:16 53.41208 -2.15427 1920 ft 134 kts 226°
2026-05-07 13:17 53.40625 -2.16633 1737 ft 133 kts 226°
2026-05-07 13:17 53.40039 -2.17847 1563 ft 133 kts 227°
2026-05-07 13:17 53.39467 -2.19036 1379 ft 130 kts 226°
2026-05-07 13:17 53.38900 -2.20199 1189 ft 132 kts 226°
2026-05-07 13:18 53.38315 -2.21420 999 ft 133 kts 227°